Time,TemperatureF,DewpointF,PressureIn,WindDirection,WindDirectionDegrees,WindSpeedMPH,WindSpeedGustMPH,Humidity,HourlyPrecipIn,Conditions,Clouds,dailyrainin,SoftwareType,DateUTC
2014-01-15 00:01:00,45.5,35.2,29.95,West,276,4.2,4.6,67,0.00,RA,SCT,0.00,WeatherDisplay:10.37,2014-01-15 05:01:00,
2014-01-15 00:02:00,45.5,35.2,29.95,West,276,4.2,4.6,67,0.00,RA,SCT,0.00,WeatherDisplay:10.37,2014-01-15 05:02:00,
2014-01-15 00:07:00,45.6,34.9,29.95,West,270,4.6,5.8,66,0.00,RA,SCT,0.00,WeatherDisplay:10.37,2014-01-15 05:07:00,
2014-01-15 00:12:00,45.6,35.3,29.95,WNW,283,4.0,5.8,67,0.00,CLR,SCT,0.00,WeatherDisplay:10.37,2014-01-15 05:12:00,
2014-01-15 00:17:00,45.5,34.8,29.94,West,273,4.0,4.6,66,0.00,CLR,SCT,0.00,WeatherDisplay:10.37,2014-01-15 05:17:00,
2014-01-15 00:22:00,45.5,34.8,29.94,West,269,5.4,6.9,66,0.00,CLR,SCT,0.00,WeatherDisplay:10.37,2014-01-15 05:22:00,
2014-01-15 00:27:00,45.5,34.8,29.94,West,278,5.4,8.1,66,0.00,CLR,SCT,0.00,WeatherDisplay:10.37,2014-01-15 05:27:00,
2014-01-15 00:32:00,45.4,34.3,29.94,West,279,6.0,8.1,65,0.00,CLR,SCT,0.00,WeatherDisplay:10.37,2014-01-15 05:32:00,
2014-01-15 00:37:00,45.5,34.8,29.94,West,279,5.9,6.9,66,0.00,CLR,SCT,0.00,WeatherDisplay:10.37,2014-01-15 05:37:00,
2014-01-15 00:42:00,45.3,34.6,29.94,WNW,283,4.4,4.6,66,0.00,CLR,SCT,0.00,WeatherDisplay:10.37,2014-01-15 05:42:00,
2014-01-15 00:47:00,45.1,34.4,29.94,West,268,5.6,6.9,66,0.00,CLR,SCT,0.00,WeatherDisplay:10.37,2014-01-15 05:47:00,
2014-01-15 00:52:00,45.0,34.7,29.95,WNW,284,8.7,11.5,67,0.00,CLR,SCT,0.00,WeatherDisplay:10.37,2014-01-15 05:52:00,
2014-01-15 00:57:00,44.5,34.6,29.95,West,276,5.0,9.2,68,0.00,CLR,SCT,0.00,WeatherDisplay:10.37,2014-01-15 05:57:00,
2014-01-15 01:02:00,44.6,34.7,29.95,West,280,5.4,5.8,68,0.00,CLR,SCT,0.00,WeatherDisplay:10.37,2014-01-15 06:02:00,
2014-01-15 01:07:00,44.5,34.6,29.94,West,273,5.2,6.9,68,0.00,CLR,SCT,0.00,WeatherDisplay:10.37,2014-01-15 06:07:00,
2014-01-15 01:12:00,44.5,34.6,29.94,West,270,4.1,5.8,68,0.00,CLR,SCT,0.00,WeatherDisplay:10.37,2014-01-15 06:12:00,
2014-01-15 01:17:00,44.5,35.0,29.94,West,274,4.2,8.1,69,0.00,CLR,SCT,0.00,WeatherDisplay:10.37,2014-01-15 06:17:00,
2014-01-15 01:22:00,44.5,35.0,29.94,West,279,4.8,6.9,69,0.00,CLR,SCT,0.00,WeatherDisplay:10.37,2014-01-15 06:22:00,
2014-01-15 01:27:00,44.4,35.2,29.94,WNW,287,5.5,9.2,70,0.00,CLR,SCT,0.00,WeatherDisplay:10.37,2014-01-15 06:27:00,
2014-01-15 01:32:00,44.2,35.7,29.95,West,280,4.9,6.9,72,0.00,CLR,SCT,0.00,WeatherDisplay:10.37,2014-01-15 06:32:00,
2014-01-15 01:37:00,44.0,35.9,29.95,WNW,302,4.5,6.9,73,0.00,CLR,SCT,0.00,WeatherDisplay:10.37,2014-01-15 06:37:00,
2014-01-15 01:42:00,43.8,36.0,29.95,West,266,5.4,8.1,74,0.00,CLR,SCT,0.00,WeatherDisplay:10.37,2014-01-15 06:42:00,
2014-01-15 01:47:00,43.6,36.2,29.95,West,279,5.8,8.1,75,0.00,CLR,SCT,0.00,WeatherDisplay:10.37,2014-01-15 06:47:00,
2014-01-15 01:52:00,43.5,36.4,29.95,West,271,5.7,9.2,76,0.00,CLR,SCT,0.00,WeatherDisplay:10.37,2014-01-15 06:52:00,
2014-01-15 01:57:00,43.3,36.6,29.95,West,278,7.6,12.0,77,0.00,CLR,SCT,0.00,WeatherDisplay:10.37,2014-01-15 06:57:00,
2014-01-15 02:02:00,43.2,36.5,29.95,WNW,302,8.1,12.7,77,0.00,CLR,SCT,0.00,WeatherDisplay:10.37,2014-01-15 07:02:00,
2014-01-15 02:07:00,43.1,36.4,29.96,WNW,289,7.9,11.5,77,0.00,CLR,SCT,0.00,WeatherDisplay:10.37,2014-01-15 07:07:00,
2014-01-15 02:12:00,43.0,36.6,29.96,West,275,7.3,9.2,78,0.00,CLR,SCT,0.00,WeatherDisplay:10.37,2014-01-15 07:12:00,
2014-01-15 02:17:00,42.8,36.4,29.96,WNW,293,8.0,11.5,78,0.00,CLR,SCT,0.00,WeatherDisplay:10.37,2014-01-15 07:17:00,
2014-01-15 02:22:00,42.6,36.5,29.96,West,268,7.2,9.2,79,0.00,CLR,SCT,0.00,WeatherDisplay:10.37,2014-01-15 07:22:00,
2014-01-15 02:27:00,42.5,36.1,29.96,West,281,7.2,10.4,78,0.00,CLR,SCT,0.00,WeatherDisplay:10.37,2014-01-15 07:27:00,
2014-01-15 02:32:00,42.4,36.0,29.97,West,277,7.0,12.7,78,0.00,CLR,SCT,0.00,WeatherDisplay:10.37,2014-01-15 07:32:00,
2014-01-15 02:37:00,42.3,35.9,29.97,WNW,299,8.1,11.5,78,0.00,CLR,SCT,0.00,WeatherDisplay:10.37,2014-01-15 07:37:00,
2014-01-15 02:42:00,42.2,35.8,29.97,West,264,6.0,10.4,78,0.00,CLR,SCT,0.00,WeatherDisplay:10.37,2014-01-15 07:42:00,
2014-01-15 02:47:00,42.1,35.7,29.97,WNW,286,6.6,10.4,78,0.00,CLR,SCT,0.00,WeatherDisplay:10.37,2014-01-15 07:47:00,
2014-01-15 02:52:00,42.0,35.6,29.97,West,276,9.7,12.7,78,0.00,CLR,SCT,0.00,WeatherDisplay:10.37,2014-01-15 07:52:00,
2014-01-15 02:57:00,41.9,35.5,29.98,West,278,5.7,10.4,78,0.00,CLR,SCT,0.00,WeatherDisplay:10.37,2014-01-15 07:57:00,
2014-01-15 03:02:00,41.8,35.1,29.98,West,268,5.8,13.8,77,0.00,CLR,SCT,0.00,WeatherDisplay:10.37,2014-01-15 08:02:00,
2014-01-15 03:07:00,41.7,35.0,29.98,West,275,5.8,9.2,77,0.00,CLR,SCT,0.00,WeatherDisplay:10.37,2014-01-15 08:07:00,
2014-01-15 03:12:00,41.6,34.9,29.99,WSW,258,4.1,6.0,77,0.00,CLR,SCT,0.00,WeatherDisplay:10.37,2014-01-15 08:12:00,
2014-01-15 03:17:00,41.5,34.5,29.99,West,265,6.0,11.5,76,0.00,CLR,SCT,0.00,WeatherDisplay:10.37,2014-01-15 08:17:00,
2014-01-15 03:22:00,41.5,34.5,29.99,West,271,6.8,8.1,76,0.00,CLR,SCT,0.00,WeatherDisplay:10.37,2014-01-15 08:22:00,
2014-01-15 03:27:00,41.3,34.0,29.99,West,278,6.7,9.2,75,0.00,CLR,SCT,0.00,WeatherDisplay:10.37,2014-01-15 08:27:00,
2014-01-15 03:32:00,41.2,33.9,29.99,West,273,5.0,6.9,75,0.00,CLR,SCT,0.00,WeatherDisplay:10.37,2014-01-15 08:32:00,
2014-01-15 03:37:00,41.1,33.8,29.99,West,280,3.7,4.6,75,0.00,CLR,SCT,0.00,WeatherDisplay:10.37,2014-01-15 08:37:00,
2014-01-15 03:42:00,41.1,34.1,29.99,West,260,3.8,3.8,76,0.00,CLR,SCT,0.00,WeatherDisplay:10.37,2014-01-15 08:42:00,
2014-01-15 03:47:00,41.0,33.7,30.00,West,266,3.3,3.5,75,0.00,CLR,SCT,0.00,WeatherDisplay:10.37,2014-01-15 08:47:00,
2014-01-15 03:52:00,41.0,34.0,30.00,West,278,1.3,3.5,76,0.00,CLR,SCT,0.00,WeatherDisplay:10.37,2014-01-15 08:52:00,
2014-01-15 03:57:00,40.9,33.6,30.00,WNW,293,1.6,2.3,75,0.00,CLR,SCT,0.00,WeatherDisplay:10.37,2014-01-15 08:57:00,
2014-01-15 04:02:00,40.8,33.5,30.00,West,275,3.1,3.5,75,0.00,CLR,SCT,0.00,WeatherDisplay:10.37,2014-01-15 09:02:00,
2014-01-15 04:07:00,40.7,33.4,30.00,West,277,5.1,5.8,75,0.00,CLR,SCT,0.00,WeatherDisplay:10.37,2014-01-15 09:07:00,
2014-01-15 04:12:00,40.7,33.4,30.00,NW,307,0.8,2.3,75,0.00,CLR,SCT,0.00,WeatherDisplay:10.37,2014-01-15 09:12:00,
2014-01-15 04:17:00,40.6,33.0,30.00,NW,314,2.0,3.5,74,0.00,CLR,SCT,0.00,WeatherDisplay:10.37,2014-01-15 09:17:00,
2014-01-15 04:22:00,40.6,33.3,30.00,WNW,288,1.7,3.5,75,0.00,CLR,SCT,0.00,WeatherDisplay:10.37,2014-01-15 09:22:00,
2014-01-15 04:27:00,40.6,33.0,30.00,West,277,0.1,1.2,74,0.00,CLR,SCT,0.00,WeatherDisplay:10.37,2014-01-15 09:27:00,
2014-01-15 04:32:00,40.5,33.2,30.01,WNW,291,0.8,2.3,75,0.00,CLR,SCT,0.00,WeatherDisplay:10.37,2014-01-15 09:32:00,
2014-01-15 04:37:00,40.4,33.1,30.01,WNW,299,1.7,3.5,75,0.00,CLR,SCT,0.00,WeatherDisplay:10.37,2014-01-15 09:37:00,
2014-01-15 04:42:00,40.2,33.2,30.01,WNW,299,0.4,1.2,76,0.00,CLR,SCT,0.00,WeatherDisplay:10.37,2014-01-15 09:42:00,
2014-01-15 04:47:00,40.1,33.5,30.01,WNW,299,0.0,0.0,77,0.00,CLR,SCT,0.00,WeatherDisplay:10.37,2014-01-15 09:47:00,
2014-01-15 04:52:00,39.9,33.6,30.02,WNW,300,0.7,2.0,78,0.00,CLR,SCT,0.00,WeatherDisplay:10.37,2014-01-15 09:52:00,
2014-01-15 04:57:00,39.7,33.4,30.02,WNW,300,0.5,0.0,78,0.00,CLR,SCT,0.00,WeatherDisplay:10.37,2014-01-15 09:57:00,
2014-01-15 05:02:00,39.6,33.3,30.02,East,87,1.3,3.5,78,0.00,CLR,SCT,0.00,WeatherDisplay:10.37,2014-01-15 10:02:00,
2014-01-15 05:07:00,39.6,33.9,30.02,NE,43,4.7,6.9,80,0.00,CLR,SCT,0.00,WeatherDisplay:10.37,2014-01-15 10:07:00,
2014-01-15 05:12:00,39.3,33.3,30.02,East,96,7.2,8.1,79,0.00,CLR,SCT,0.00,WeatherDisplay:10.37,2014-01-15 10:12:00,
2014-01-15 05:17:00,38.7,33.1,30.02,East,98,9.5,11.0,80,0.00,CLR,SCT,0.00,WeatherDisplay:10.37,2014-01-15 10:17:00,
2014-01-15 05:22:00,38.4,33.7,30.02,East,92,9.0,10.4,83,0.00,CLR,SCT,0.00,WeatherDisplay:10.37,2014-01-15 10:22:00,
2014-01-15 05:27:00,38.0,33.0,30.02,East,94,9.3,11.5,82,0.00,CLR,SCT,0.00,WeatherDisplay:10.37,2014-01-15 10:27:00,
2014-01-15 05:32:00,37.9,33.8,30.02,ESE,107,8.7,9.2,85,0.00,CLR,SCT,0.00,WeatherDisplay:10.37,2014-01-15 10:32:00,
2014-01-15 05:37:00,37.7,33.6,30.03,East,92,8.6,9.2,85,0.00,CLR,SCT,0.00,WeatherDisplay:10.37,2014-01-15 10:37:00,
2014-01-15 05:42:00,37.7,33.9,30.03,ESE,108,11.1,12.7,86,0.00,CLR,SCT,0.00,WeatherDisplay:10.37,2014-01-15 10:42:00,
2014-01-15 05:47:00,37.3,33.5,30.03,East,99,7.8,9.2,86,0.00,CLR,SCT,0.00,WeatherDisplay:10.37,2014-01-15 10:47:00,
2014-01-15 05:52:00,37.3,33.5,30.03,SE,138,7.5,9.2,86,0.00,CLR,SCT,0.00,WeatherDisplay:10.37,2014-01-15 10:52:00,
2014-01-15 05:57:00,37.1,33.9,30.03,SE,145,7.7,9.2,88,0.00,CLR,SCT,0.00,WeatherDisplay:10.37,2014-01-15 10:57:00,
2014-01-15 06:02:00,36.9,33.7,30.03,SSE,147,6.7,8.1,88,0.00,CLR,SCT,0.00,WeatherDisplay:10.37,2014-01-15 11:02:00,
2014-01-15 06:07:00,36.8,33.9,30.03,SSE,156,7.0,8.1,89,0.01,RA,SCT,0.01,WeatherDisplay:10.37,2014-01-15 11:07:00,
2014-01-15 06:12:00,36.8,34.1,30.04,SSE,160,6.4,6.9,90,0.01,RA,SCT,0.01,WeatherDisplay:10.37,2014-01-15 11:12:00,
2014-01-15 06:17:00,36.8,34.1,30.03,SSE,156,7.4,10.4,90,0.01,CLR,SCT,0.01,WeatherDisplay:10.37,2014-01-15 11:17:00,
2014-01-15 06:22:00,36.7,34.0,30.03,SE,146,7.3,9.2,90,0.01,CLR,SCT,0.01,WeatherDisplay:10.37,2014-01-15 11:22:00,
2014-01-15 06:27:00,36.6,33.9,30.03,SE,126,7.8,9.2,90,0.01,CLR,SCT,0.01,WeatherDisplay:10.37,2014-01-15 11:27:00,
2014-01-15 06:32:00,36.5,34.1,30.03,SE,127,4.7,6.9,91,0.01,CLR,SCT,0.01,WeatherDisplay:10.37,2014-01-15 11:32:00,
2014-01-15 06:37:00,36.4,34.0,30.04,SE,133,4.1,4.6,91,0.01,CLR,SCT,0.01,WeatherDisplay:10.37,2014-01-15 11:37:00,
2014-01-15 06:42:00,36.4,33.7,30.04,SE,142,4.9,6.9,90,0.01,CLR,SCT,0.01,WeatherDisplay:10.37,2014-01-15 11:42:00,
2014-01-15 06:47:00,36.3,33.6,30.04,SE,135,4.7,6.9,90,0.01,CLR,SCT,0.01,WeatherDisplay:10.37,2014-01-15 11:47:00,
2014-01-15 06:52:00,36.3,33.9,30.04,SSE,154,4.2,4.6,91,0.01,CLR,SCT,0.01,WeatherDisplay:10.37,2014-01-15 11:52:00,
2014-01-15 06:57:00,36.3,33.9,30.04,SE,145,5.1,5.8,91,0.01,CLR,SCT,0.01,WeatherDisplay:10.37,2014-01-15 11:57:00,
2014-01-15 07:02:00,36.2,33.8,30.04,SSE,150,3.6,6.0,91,0.01,CLR,SCT,0.01,WeatherDisplay:10.37,2014-01-15 12:02:00,
2014-01-15 07:07:00,36.3,33.9,30.04,SSE,164,5.5,5.5,91,0.00,CLR,SCT,0.01,WeatherDisplay:10.37,2014-01-15 12:07:00,
2014-01-15 07:12:00,36.2,33.8,30.04,SSE,162,3.7,4.6,91,0.00,CLR,SCT,0.01,WeatherDisplay:10.37,2014-01-15 12:12:00,
2014-01-15 07:17:00,36.2,33.8,30.04,South,169,3.9,5.8,91,0.00,CLR,SCT,0.01,WeatherDisplay:10.37,2014-01-15 12:17:00,
2014-01-15 07:22:00,36.2,34.1,30.04,SSE,158,4.5,5.8,92,0.00,CLR,SCT,0.01,WeatherDisplay:10.37,2014-01-15 12:22:00,
2014-01-15 07:27:00,36.1,34.0,30.04,South,169,4.9,5.8,92,0.00,CLR,SCT,0.01,WeatherDisplay:10.37,2014-01-15 12:27:00,
2014-01-15 07:32:00,36.0,33.9,30.05,South,174,3.8,5.8,92,0.00,CLR,SCT,0.01,WeatherDisplay:10.37,2014-01-15 12:32:00,
2014-01-15 07:37:00,36.0,33.9,30.05,South,170,5.1,5.1,92,0.00,CLR,SCT,0.01,WeatherDisplay:10.37,2014-01-15 12:37:00,
2014-01-15 07:42:00,35.8,33.7,30.05,SSE,163,2.4,4.6,92,0.00,CLR,SCT,0.01,WeatherDisplay:10.37,2014-01-15 12:42:00,
2014-01-15 07:47:00,35.8,33.7,30.05,South,181,2.7,3.5,92,0.00,CLR,SCT,0.01,WeatherDisplay:10.37,2014-01-15 12:47:00,
2014-01-15 07:52:00,35.7,33.6,30.05,South,178,2.1,3.5,92,0.00,CLR,SCT,0.01,WeatherDisplay:10.37,2014-01-15 12:52:00,
2014-01-15 07:57:00,35.6,33.5,30.05,South,191,1.0,3.5,92,0.00,CLR,SCT,0.01,WeatherDisplay:10.37,2014-01-15 12:57:00,
2014-01-15 08:03:00,35.5,33.4,30.05,South,180,1.5,3.5,92,0.00,CLR,SCT,0.01,WeatherDisplay:10.37,2014-01-15 13:03:00,
2014-01-15 08:08:00,35.5,33.4,30.05,South,175,2.2,3.5,92,0.00,CLR,SCT,0.01,WeatherDisplay:10.37,2014-01-15 13:08:00,
2014-01-15 08:13:00,35.5,33.4,30.06,South,175,0.4,3.0,92,0.00,CLR,SCT,0.01,WeatherDisplay:10.37,2014-01-15 13:13:00,
2014-01-15 08:18:00,35.5,33.4,30.06,SW,225,3.1,3.5,92,0.00,CLR,SCT,0.01,WeatherDisplay:10.37,2014-01-15 13:18:00,
2014-01-15 08:23:00,35.4,33.3,30.06,SSW,203,1.2,3.5,92,0.00,CLR,SCT,0.01,WeatherDisplay:10.37,2014-01-15 13:23:00,
2014-01-15 08:28:00,35.4,33.3,30.06,South,169,2.1,4.6,92,0.00,CLR,SCT,0.01,WeatherDisplay:10.37,2014-01-15 13:28:00,
2014-01-15 08:33:00,35.5,33.7,30.06,SSE,167,1.7,3.5,93,0.00,CLR,SCT,0.01,WeatherDisplay:10.37,2014-01-15 13:33:00,
2014-01-15 08:38:00,35.5,33.7,30.06,SSE,167,2.7,3.5,93,0.00,CLR,SCT,0.01,WeatherDisplay:10.37,2014-01-15 13:38:00,
2014-01-15 08:43:00,35.5,33.7,30.07,South,169,1.5,3.5,93,0.00,CLR,SCT,0.01,WeatherDisplay:10.37,2014-01-15 13:43:00,
2014-01-15 08:48:00,35.5,33.4,30.06,SSE,152,2.9,3.5,92,0.00,CLR,SCT,0.01,WeatherDisplay:10.37,2014-01-15 13:48:00,
2014-01-15 08:53:00,35.5,33.4,30.06,SSE,153,0.3,1.2,92,0.00,CLR,SCT,0.01,WeatherDisplay:10.37,2014-01-15 13:53:00,
2014-01-15 08:58:00,35.5,33.4,30.07,SSE,153,2.2,3.5,92,0.00,CLR,SCT,0.01,WeatherDisplay:10.37,2014-01-15 13:58:00,
2014-01-15 09:03:00,35.6,33.5,30.07,SSE,153,1.4,3.5,92,0.00,CLR,SCT,0.01,WeatherDisplay:10.37,2014-01-15 14:03:00,
2014-01-15 09:08:00,35.6,33.5,30.07,SSE,153,1.4,2.3,92,0.00,CLR,SCT,0.01,WeatherDisplay:10.37,2014-01-15 14:08:00,
2014-01-15 09:13:00,35.8,34.0,30.07,SSE,153,0.1,1.2,93,0.00,CLR,SCT,0.01,WeatherDisplay:10.37,2014-01-15 14:13:00,
2014-01-15 09:18:00,35.8,33.7,30.07,SSE,153,0.0,0.0,92,0.00,CLR,SCT,0.01,WeatherDisplay:10.37,2014-01-15 14:18:00,
2014-01-15 09:23:00,35.8,33.7,30.07,SSE,153,0.4,1.2,92,0.00,CLR,SCT,0.01,WeatherDisplay:10.37,2014-01-15 14:23:00,
2014-01-15 09:28:00,35.9,33.8,30.07,SSE,153,0.0,0.0,92,0.00,CLR,SCT,0.01,WeatherDisplay:10.37,2014-01-15 14:28:00,
2014-01-15 09:33:00,36.0,33.9,30.07,SSE,153,0.0,0.0,92,0.00,CLR,SCT,0.01,WeatherDisplay:10.37,2014-01-15 14:33:00,
2014-01-15 09:38:00,36.1,34.0,30.07,SSE,153,0.1,1.2,92,0.00,CLR,SCT,0.01,WeatherDisplay:10.37,2014-01-15 14:38:00,
2014-01-15 09:43:00,36.2,34.1,30.07,SSE,153,0.0,0.0,92,0.00,CLR,SCT,0.01,WeatherDisplay:10.37,2014-01-15 14:43:00,
2014-01-15 09:48:00,36.3,34.2,30.06,SSE,153,1.1,2.3,92,0.00,CLR,SCT,0.01,WeatherDisplay:10.37,2014-01-15 14:48:00,
2014-01-15 09:53:00,36.3,33.9,30.06,SSE,153,1.7,2.3,91,0.00,CLR,SCT,0.01,WeatherDisplay:10.37,2014-01-15 14:53:00,
2014-01-15 09:58:00,36.4,34.0,30.06,SSE,153,0.9,1.2,91,0.00,CLR,SCT,0.01,WeatherDisplay:10.37,2014-01-15 14:58:00,
2014-01-15 10:03:00,36.5,34.1,30.06,SSE,153,0.0,1.2,91,0.00,CLR,SCT,0.01,WeatherDisplay:10.37,2014-01-15 15:03:00,
2014-01-15 10:08:00,36.7,34.3,30.07,SSE,153,2.1,3.5,91,0.00,CLR,SCT,0.01,WeatherDisplay:10.37,2014-01-15 15:08:00,
2014-01-15 10:13:00,36.9,34.5,30.07,SSE,153,1.5,3.5,91,0.00,CLR,SCT,0.01,WeatherDisplay:10.37,2014-01-15 15:13:00,
2014-01-15 10:18:00,37.0,34.3,30.07,SSE,153,0.8,2.3,90,0.00,CLR,SCT,0.01,WeatherDisplay:10.37,2014-01-15 15:18:00,
2014-01-15 10:23:00,37.3,34.6,30.07,SSE,153,0.8,2.3,90,0.00,CLR,SCT,0.01,WeatherDisplay:10.37,2014-01-15 15:23:00,
2014-01-15 10:28:00,37.3,34.4,30.07,SSE,153,0.4,1.2,89,0.00,CLR,SCT,0.01,WeatherDisplay:10.37,2014-01-15 15:28:00,
2014-01-15 10:33:00,37.3,34.4,30.07,SSE,153,0.0,0.0,89,0.00,CLR,SCT,0.01,WeatherDisplay:10.37,2014-01-15 15:33:00,
2014-01-15 10:38:00,37.5,34.8,30.07,SSE,153,0.1,1.2,90,0.00,CLR,SCT,0.01,WeatherDisplay:10.37,2014-01-15 15:38:00,
2014-01-15 10:43:00,37.6,34.7,30.07,SSE,153,1.0,2.3,89,0.00,CLR,SCT,0.01,WeatherDisplay:10.37,2014-01-15 15:43:00,
2014-01-15 10:48:00,37.7,34.8,30.07,SSE,153,0.4,2.3,89,0.00,CLR,SCT,0.01,WeatherDisplay:10.37,2014-01-15 15:48:00,
2014-01-15 10:53:00,37.6,34.7,30.06,SSE,153,0.4,1.2,89,0.00,CLR,SCT,0.01,WeatherDisplay:10.37,2014-01-15 15:53:00,
2014-01-15 10:58:00,37.6,34.7,30.06,SSE,153,0.5,1.2,89,0.00,CLR,SCT,0.01,WeatherDisplay:10.37,2014-01-15 15:58:00,
2014-01-15 11:03:00,37.8,35.1,30.06,SSE,153,0.2,1.2,90,0.00,CLR,SCT,0.01,WeatherDisplay:10.37,2014-01-15 16:03:00,
2014-01-15 11:08:00,38.0,35.3,30.06,SSE,153,0.0,0.0,90,0.00,CLR,SCT,0.01,WeatherDisplay:10.37,2014-01-15 16:08:00,
2014-01-15 11:13:00,38.2,35.2,30.06,SSE,153,0.0,0.0,89,0.00,CLR,SCT,0.01,WeatherDisplay:10.37,2014-01-15 16:13:00,
2014-01-15 11:18:00,38.6,35.6,30.05,SSE,153,1.0,2.3,89,0.00,CLR,SCT,0.01,WeatherDisplay:10.37,2014-01-15 16:18:00,
2014-01-15 11:23:00,38.6,35.4,30.05,SSE,153,1.5,2.3,88,0.00,CLR,SCT,0.01,WeatherDisplay:10.37,2014-01-15 16:23:00,
2014-01-15 11:28:00,38.6,35.1,30.05,SSE,153,0.8,2.3,87,0.00,CLR,SCT,0.01,WeatherDisplay:10.37,2014-01-15 16:28:00,
2014-01-15 11:33:00,38.6,34.8,30.05,SSE,153,0.0,0.0,86,0.00,CLR,SCT,0.01,WeatherDisplay:10.37,2014-01-15 16:33:00,
2014-01-15 11:38:00,38.7,34.3,30.05,SSE,153,0.9,1.2,84,0.00,CLR,SCT,0.01,WeatherDisplay:10.37,2014-01-15 16:38:00,
2014-01-15 11:43:00,38.9,34.2,30.04,SSE,153,1.0,2.3,83,0.00,CLR,SCT,0.01,WeatherDisplay:10.37,2014-01-15 16:43:00,
2014-01-15 11:48:00,39.0,34.0,30.04,SSE,153,1.2,2.3,82,0.00,CLR,SCT,0.01,WeatherDisplay:10.37,2014-01-15 16:48:00,
2014-01-15 11:53:00,39.1,33.5,30.04,SSE,153,1.2,2.3,80,0.00,CLR,SCT,0.01,WeatherDisplay:10.37,2014-01-15 16:53:00,
2014-01-15 11:58:00,39.2,33.5,30.04,SSE,153,0.0,1.2,80,0.00,CLR,SCT,0.01,WeatherDisplay:10.37,2014-01-15 16:58:00,
2014-01-15 12:03:00,39.3,32.7,30.03,SSE,153,1.5,2.3,77,0.00,CLR,SCT,0.01,WeatherDisplay:10.37,2014-01-15 17:03:00,
2014-01-15 12:08:00,39.5,32.9,30.03,SSE,153,0.9,2.3,77,0.00,CLR,SCT,0.01,WeatherDisplay:10.37,2014-01-15 17:08:00,
2014-01-15 12:13:00,39.5,32.6,30.03,SSE,153,1.9,3.5,76,0.00,CLR,SCT,0.01,WeatherDisplay:10.37,2014-01-15 17:13:00,
2014-01-15 12:18:00,39.6,32.7,30.02,SSE,153,0.9,2.3,76,0.00,CLR,SCT,0.01,WeatherDisplay:10.37,2014-01-15 17:18:00,
2014-01-15 12:23:00,39.8,32.2,30.02,SSE,153,2.3,3.5,74,0.00,CLR,SCT,0.01,WeatherDisplay:10.37,2014-01-15 17:23:00,
2014-01-15 12:28:00,39.8,31.8,30.02,SSE,153,0.1,2.3,73,0.00,CLR,SCT,0.01,WeatherDisplay:10.37,2014-01-15 17:28:00,
2014-01-15 12:33:00,40.0,30.6,30.01,SSE,153,0.0,1.2,69,0.00,CLR,SCT,0.01,WeatherDisplay:10.37,2014-01-15 17:33:00,
2014-01-15 12:38:00,40.2,31.2,30.01,SSE,153,1.2,2.3,70,0.00,CLR,SCT,0.01,WeatherDisplay:10.37,2014-01-15 17:38:00,
2014-01-15 12:43:00,40.2,30.8,30.01,SSE,153,0.1,1.2,69,0.00,CLR,SCT,0.01,WeatherDisplay:10.37,2014-01-15 17:43:00,
2014-01-15 12:48:00,40.2,30.5,30.01,SW,218,2.7,3.5,68,0.00,CLR,SCT,0.01,WeatherDisplay:10.37,2014-01-15 17:48:00,
2014-01-15 12:53:00,40.2,30.5,30.01,SW,219,2.3,3.5,68,0.00,CLR,SCT,0.01,WeatherDisplay:10.37,2014-01-15 17:53:00,
2014-01-15 12:58:00,40.2,26.6,30.00,NNW,345,5.3,8.1,58,0.00,CLR,SCT,0.01,WeatherDisplay:10.37,2014-01-15 17:58:00,
2014-01-15 13:03:00,40.6,26.1,30.00,West,278,3.5,5.8,56,0.00,CLR,SCT,0.01,WeatherDisplay:10.37,2014-01-15 18:03:00,
2014-01-15 13:08:00,40.7,26.2,30.00,WNW,299,5.0,6.9,56,0.00,CLR,SCT,0.01,WeatherDisplay:10.37,2014-01-15 18:08:00,
2014-01-15 13:13:00,40.7,25.8,30.00,WNW,283,8.7,11.5,55,0.00,CLR,SCT,0.01,WeatherDisplay:10.37,2014-01-15 18:13:00,
2014-01-15 13:18:00,40.9,26.0,29.99,NNW,340,5.5,6.9,55,0.00,CLR,SCT,0.01,WeatherDisplay:10.37,2014-01-15 18:18:00,
2014-01-15 13:23:00,41.1,27.0,29.99,WNW,283,8.0,10.4,57,0.00,CLR,SCT,0.01,WeatherDisplay:10.37,2014-01-15 18:23:00,
2014-01-15 13:28:00,40.8,26.3,29.99,WNW,287,5.7,11.5,56,0.00,CLR,SCT,0.01,WeatherDisplay:10.37,2014-01-15 18:28:00,
2014-01-15 13:33:00,40.5,26.4,29.99,West,264,5.4,8.1,57,0.00,CLR,SCT,0.01,WeatherDisplay:10.37,2014-01-15 18:33:00,
2014-01-15 13:38:00,40.4,26.4,29.99,WNW,285,4.8,5.8,57,0.00,CLR,SCT,0.01,WeatherDisplay:10.37,2014-01-15 18:38:00,
2014-01-15 13:43:00,40.7,26.2,29.99,NW,308,3.0,9.2,56,0.00,CLR,SCT,0.01,WeatherDisplay:10.37,2014-01-15 18:43:00,
2014-01-15 13:48:00,41.0,26.5,29.99,NW,317,6.7,10.4,56,0.00,CLR,SCT,0.01,WeatherDisplay:10.37,2014-01-15 18:48:00,
2014-01-15 13:53:00,41.2,25.8,29.99,West,267,6.1,9.2,54,0.00,CLR,SCT,0.01,WeatherDisplay:10.37,2014-01-15 18:53:00,
2014-01-15 13:58:00,40.9,24.6,29.98,West,280,6.8,8.1,52,0.00,CLR,SCT,0.01,WeatherDisplay:10.37,2014-01-15 18:58:00,
2014-01-15 14:03:00,40.9,23.7,29.98,NW,321,6.3,8.1,50,0.00,CLR,SCT,0.01,WeatherDisplay:10.37,2014-01-15 19:03:00,
2014-01-15 14:08:00,41.2,23.9,29.98,WSW,258,5.1,6.0,50,0.00,CLR,SCT,0.01,WeatherDisplay:10.37,2014-01-15 19:08:00,
2014-01-15 14:13:00,41.3,23.1,29.98,WNW,285,7.7,9.2,48,0.00,CLR,SCT,0.01,WeatherDisplay:10.37,2014-01-15 19:13:00,
2014-01-15 14:18:00,41.3,20.5,29.98,West,275,6.6,8.1,43,0.00,CLR,SCT,0.01,WeatherDisplay:10.37,2014-01-15 19:18:00,
2014-01-15 14:23:00,41.5,20.6,29.98,West,275,7.2,11.5,43,0.00,CLR,SCT,0.01,WeatherDisplay:10.37,2014-01-15 19:23:00,
2014-01-15 14:28:00,41.5,19.5,29.98,West,266,8.5,10.4,41,0.00,CLR,SCT,0.01,WeatherDisplay:10.37,2014-01-15 19:28:00,
2014-01-15 14:33:00,41.7,21.4,29.98,WNW,285,5.1,8.1,44,0.00,CLR,SCT,0.01,WeatherDisplay:10.37,2014-01-15 19:33:00,
2014-01-15 14:38:00,42.1,21.2,29.98,WNW,293,5.2,8.1,43,0.00,CLR,SCT,0.01,WeatherDisplay:10.37,2014-01-15 19:38:00,
2014-01-15 14:43:00,42.3,19.1,29.98,WNW,283,2.9,5.8,39,0.00,CLR,SCT,0.01,WeatherDisplay:10.37,2014-01-15 19:43:00,
2014-01-15 14:48:00,42.5,19.3,29.98,West,279,5.1,8.1,39,0.00,CLR,SCT,0.01,WeatherDisplay:10.37,2014-01-15 19:48:00,
2014-01-15 14:53:00,42.3,15.9,29.98,WNW,283,6.4,9.2,34,0.00,CLR,SCT,0.01,WeatherDisplay:10.37,2014-01-15 19:53:00,
2014-01-15 14:58:00,42.0,15.6,29.98,WNW,286,11.0,13.8,34,0.00,CLR,SCT,0.01,WeatherDisplay:10.37,2014-01-15 19:58:00,
2014-01-15 15:03:00,41.7,15.4,29.98,West,274,5.1,10.4,34,0.00,CLR,SCT,0.01,WeatherDisplay:10.37,2014-01-15 20:03:00,
2014-01-15 15:08:00,42.0,18.8,29.98,NW,316,6.3,11.5,39,0.00,CLR,SCT,0.01,WeatherDisplay:10.37,2014-01-15 20:08:00,
2014-01-15 15:13:00,42.0,19.4,29.98,West,273,4.5,8.1,40,0.00,CLR,SCT,0.01,WeatherDisplay:10.37,2014-01-15 20:13:00,
2014-01-15 15:18:00,42.2,20.2,29.98,West,279,6.7,10.4,41,0.00,CLR,SCT,0.01,WeatherDisplay:10.37,2014-01-15 20:18:00,
2014-01-15 15:23:00,42.2,21.3,29.98,WNW,284,8.7,10.4,43,0.00,CLR,SCT,0.01,WeatherDisplay:10.37,2014-01-15 20:23:00,
2014-01-15 15:28:00,41.6,21.8,29.98,WNW,282,6.7,11.5,45,0.00,CLR,SCT,0.01,WeatherDisplay:10.37,2014-01-15 20:28:00,
2014-01-15 15:33:00,41.6,21.3,29.99,West,278,8.8,11.5,44,0.00,CLR,SCT,0.01,WeatherDisplay:10.37,2014-01-15 20:33:00,
2014-01-15 15:38:00,41.7,20.8,29.98,West,262,4.5,10.4,43,0.00,CLR,SCT,0.01,WeatherDisplay:10.37,2014-01-15 20:38:00,
2014-01-15 15:43:00,42.2,21.3,29.98,West,277,2.6,5.8,43,0.00,CLR,SCT,0.01,WeatherDisplay:10.37,2014-01-15 20:43:00,
2014-01-15 15:48:00,42.3,21.9,29.98,ENE,77,2.0,6.9,44,0.00,CLR,SCT,0.01,WeatherDisplay:10.37,2014-01-15 20:48:00,
2014-01-15 15:53:00,42.3,21.9,29.98,WSW,246,7.4,11.5,44,0.00,CLR,SCT,0.01,WeatherDisplay:10.37,2014-01-15 20:53:00,
2014-01-15 15:58:00,41.8,22.0,29.99,NNW,344,3.8,5.8,45,0.00,CLR,SCT,0.01,WeatherDisplay:10.37,2014-01-15 20:58:00,
2014-01-15 16:03:00,41.5,22.2,29.99,NW,316,4.2,4.2,46,0.00,CLR,SCT,0.01,WeatherDisplay:10.37,2014-01-15 21:03:00,
2014-01-15 16:08:00,40.9,21.7,29.99,NNW,333,4.6,11.5,46,0.00,CLR,SCT,0.01,WeatherDisplay:10.37,2014-01-15 21:08:00,
2014-01-15 16:13:00,40.7,22.5,30.00,NW,323,2.0,5.0,48,0.00,CLR,SCT,0.01,WeatherDisplay:10.37,2014-01-15 21:13:00,
2014-01-15 16:18:00,40.8,22.1,30.00,NW,307,2.3,4.0,47,0.00,CLR,SCT,0.01,WeatherDisplay:10.37,2014-01-15 21:18:00,
2014-01-15 16:23:00,40.7,22.0,30.00,WSW,252,2.3,3.5,47,0.00,CLR,SCT,0.01,WeatherDisplay:10.37,2014-01-15 21:23:00,
2014-01-15 16:28:00,40.3,22.1,30.00,NW,320,4.2,8.1,48,0.00,CLR,SCT,0.01,WeatherDisplay:10.37,2014-01-15 21:28:00,
2014-01-15 16:33:00,40.2,22.1,30.00,North,359,3.4,4.6,48,0.00,CLR,SCT,0.01,WeatherDisplay:10.37,2014-01-15 21:33:00,
2014-01-15 16:38:00,40.1,22.0,30.01,NW,318,5.1,11.5,48,0.00,CLR,SCT,0.01,WeatherDisplay:10.37,2014-01-15 21:38:00,
2014-01-15 16:43:00,40.1,22.4,30.01,West,280,4.3,5.8,49,0.00,CLR,SCT,0.01,WeatherDisplay:10.37,2014-01-15 21:43:00,
2014-01-15 16:48:00,40.2,22.5,30.01,WSW,257,3.9,4.6,49,0.00,CLR,SCT,0.01,WeatherDisplay:10.37,2014-01-15 21:48:00,
2014-01-15 16:53:00,40.0,21.9,30.01,WNW,291,8.0,13.8,48,0.00,CLR,SCT,0.01,WeatherDisplay:10.37,2014-01-15 21:53:00,
2014-01-15 16:58:00,39.4,22.3,30.01,West,266,7.3,11.5,50,0.00,CLR,SCT,0.01,WeatherDisplay:10.37,2014-01-15 21:58:00,
2014-01-15 17:03:00,39.1,22.0,30.01,WNW,302,7.4,10.4,50,0.00,CLR,SCT,0.01,WeatherDisplay:10.37,2014-01-15 22:03:00,
2014-01-15 17:08:00,38.7,23.0,30.02,West,279,6.7,9.2,53,0.00,CLR,SCT,0.01,WeatherDisplay:10.37,2014-01-15 22:08:00,
2014-01-15 17:13:00,38.3,22.6,30.02,WNW,287,5.1,6.9,53,0.00,CLR,SCT,0.01,WeatherDisplay:10.37,2014-01-15 22:13:00,
2014-01-15 17:18:00,37.7,22.1,30.02,West,277,6.2,9.2,53,0.00,CLR,SCT,0.01,WeatherDisplay:10.37,2014-01-15 22:18:00,
2014-01-15 17:23:00,37.2,21.6,30.02,West,259,8.2,11.5,53,0.00,CLR,SCT,0.01,WeatherDisplay:10.37,2014-01-15 22:23:00,
2014-01-15 17:28:00,36.6,21.5,30.02,West,272,7.4,12.7,54,0.00,CLR,SCT,0.01,WeatherDisplay:10.37,2014-01-15 22:28:00,
2014-01-15 17:33:00,36.4,21.8,30.03,West,275,3.4,9.2,55,0.00,CLR,SCT,0.01,WeatherDisplay:10.37,2014-01-15 22:33:00,
2014-01-15 17:38:00,36.2,22.0,30.03,West,265,4.0,5.8,56,0.00,CLR,SCT,0.01,WeatherDisplay:10.37,2014-01-15 22:38:00,
2014-01-15 17:43:00,36.0,22.2,30.03,WNW,289,3.8,5.8,57,0.00,CLR,SCT,0.01,WeatherDisplay:10.37,2014-01-15 22:43:00,
2014-01-15 17:48:00,35.7,21.5,30.04,NNW,347,1.3,4.6,56,0.00,CLR,SCT,0.01,WeatherDisplay:10.37,2014-01-15 22:48:00,
2014-01-15 17:53:00,35.5,20.9,30.04,South,180,4.2,10.4,55,0.00,CLR,SCT,0.01,WeatherDisplay:10.37,2014-01-15 22:53:00,
2014-01-15 17:58:00,35.2,21.1,30.04,SSE,154,0.9,3.5,56,0.00,CLR,SCT,0.01,WeatherDisplay:10.37,2014-01-15 22:58:00,
2014-01-15 18:03:00,35.1,21.0,30.04,SW,231,1.3,3.5,56,0.00,CLR,SCT,0.01,WeatherDisplay:10.37,2014-01-15 23:03:00,
2014-01-15 18:08:00,34.9,20.4,30.04,West,280,1.7,2.3,55,0.00,CLR,SCT,0.01,WeatherDisplay:10.37,2014-01-15 23:08:00,
2014-01-15 18:13:00,34.8,20.7,30.05,NW,323,1.9,4.6,56,0.00,CLR,SCT,0.01,WeatherDisplay:10.37,2014-01-15 23:13:00,
2014-01-15 18:18:00,34.7,20.6,30.05,SSE,152,1.0,2.3,56,0.00,CLR,SCT,0.01,WeatherDisplay:10.37,2014-01-15 23:18:00,
2014-01-15 18:23:00,34.6,20.9,30.05,ENE,77,0.2,2.0,57,0.00,CLR,SCT,0.01,WeatherDisplay:10.37,2014-01-15 23:23:00,
2014-01-15 18:28:00,34.6,20.9,30.05,SSW,210,1.3,3.5,57,0.00,CLR,SCT,0.01,WeatherDisplay:10.37,2014-01-15 23:28:00,
2014-01-15 18:33:00,34.6,20.9,30.06,SW,227,2.7,3.5,57,0.00,CLR,SCT,0.01,WeatherDisplay:10.37,2014-01-15 23:33:00,
2014-01-15 18:38:00,34.5,20.4,30.06,West,265,1.5,3.5,56,0.00,CLR,SCT,0.01,WeatherDisplay:10.37,2014-01-15 23:38:00,
2014-01-15 18:43:00,34.4,20.3,30.06,West,266,3.4,4.6,56,0.00,CLR,SCT,0.01,WeatherDisplay:10.37,2014-01-15 23:43:00,
2014-01-15 18:48:00,34.4,19.9,30.06,North,356,2.3,4.6,55,0.00,CLR,SCT,0.01,WeatherDisplay:10.37,2014-01-15 23:48:00,
2014-01-15 18:53:00,34.3,20.2,30.06,WNW,298,2.4,3.5,56,0.00,CLR,SCT,0.01,WeatherDisplay:10.37,2014-01-15 23:53:00,
2014-01-15 18:58:00,34.3,20.2,30.07,WNW,283,3.5,4.6,56,0.00,CLR,SCT,0.01,WeatherDisplay:10.37,2014-01-15 23:58:00,
2014-01-15 19:03:00,34.3,20.2,30.07,West,265,4.0,4.6,56,0.00,CLR,SCT,0.01,WeatherDisplay:10.37,2014-01-16 00:03:00,
2014-01-15 19:08:00,34.3,20.6,30.07,West,263,3.1,3.5,57,0.00,CLR,SCT,0.01,WeatherDisplay:10.37,2014-01-16 00:08:00,
2014-01-15 19:13:00,34.3,20.2,30.07,WNW,302,1.9,3.5,56,0.00,CLR,SCT,0.01,WeatherDisplay:10.37,2014-01-16 00:13:00,
2014-01-15 19:18:00,34.2,19.7,30.07,North,9,3.3,5.8,55,0.00,CLR,SCT,0.01,WeatherDisplay:10.37,2014-01-16 00:18:00,
2014-01-15 19:23:00,34.1,20.4,30.07,West,274,2.4,4.0,57,0.00,CLR,SCT,0.01,WeatherDisplay:10.37,2014-01-16 00:23:00,
2014-01-15 19:28:00,33.9,20.7,30.07,West,274,2.9,4.6,58,0.00,CLR,SCT,0.01,WeatherDisplay:10.37,2014-01-16 00:28:00,
2014-01-15 19:33:00,33.6,19.6,30.08,WNW,302,1.2,3.5,56,0.00,CLR,SCT,0.01,WeatherDisplay:10.37,2014-01-16 00:33:00,
2014-01-15 19:38:00,33.4,19.8,30.08,WNW,283,3.1,4.6,57,0.00,CLR,SCT,0.01,WeatherDisplay:10.37,2014-01-16 00:38:00,
2014-01-15 19:43:00,33.2,20.0,30.08,West,281,3.3,4.6,58,0.00,CLR,SCT,0.01,WeatherDisplay:10.37,2014-01-16 00:43:00,
2014-01-15 19:48:00,33.2,20.8,30.09,WNW,286,2.3,3.5,60,0.00,CLR,SCT,0.01,WeatherDisplay:10.37,2014-01-16 00:48:00,
2014-01-15 19:53:00,33.1,20.7,30.09,WNW,283,2.7,4.6,60,0.00,CLR,SCT,0.01,WeatherDisplay:10.37,2014-01-16 00:53:00,
2014-01-15 19:54:00,21.6,18.1,30.11,WNW,289,1.0,3.0,86,0.00,CLR,SCT,0.00,WeatherDisplay:10.37,2014-01-16 00:54:00,
2014-01-15 19:58:00,33.0,21.0,30.09,West,271,2.7,3.5,61,0.00,CLR,SCT,0.01,WeatherDisplay:10.37,2014-01-16 00:58:00,
2014-01-15 19:59:00,21.6,18.1,30.12,WNW,286,1.0,3.0,86,0.00,CLR,SCT,0.00,WeatherDisplay:10.37,2014-01-16 00:59:00,
2014-01-15 20:03:00,32.8,20.0,30.09,WNW,291,4.6,4.6,59,0.00,CLR,SCT,0.01,WeatherDisplay:10.37,2014-01-16 01:03:00,
2014-01-15 20:08:00,32.7,20.7,30.09,West,273,4.2,4.6,61,0.00,CLR,SCT,0.01,WeatherDisplay:10.37,2014-01-16 01:08:00,
2014-01-15 20:13:00,32.6,20.2,30.10,West,268,4.2,4.6,60,0.00,CLR,SCT,0.01,WeatherDisplay:10.37,2014-01-16 01:13:00,
2014-01-15 20:18:00,32.4,20.0,30.10,West,270,3.5,5.8,60,0.00,CLR,SCT,0.01,WeatherDisplay:10.37,2014-01-16 01:18:00,
2014-01-15 20:23:00,32.3,20.3,30.10,West,266,3.8,4.6,61,0.00,CLR,SCT,0.01,WeatherDisplay:10.37,2014-01-16 01:23:00,
2014-01-15 20:28:00,32.3,20.7,30.10,West,277,3.6,4.6,62,0.00,CLR,SCT,0.01,WeatherDisplay:10.37,2014-01-16 01:28:00,
2014-01-15 20:33:00,32.1,19.8,30.10,WNW,287,4.3,5.8,60,0.00,CLR,SCT,0.01,WeatherDisplay:10.37,2014-01-16 01:33:00,
2014-01-15 20:38:00,32.0,19.7,30.10,WNW,282,4.4,6.9,60,0.00,CLR,SCT,0.01,WeatherDisplay:10.37,2014-01-16 01:38:00,
2014-01-15 20:43:00,31.9,20.0,30.11,WNW,285,3.7,8.1,61,0.00,CLR,SCT,0.01,WeatherDisplay:10.37,2014-01-16 01:43:00,
2014-01-15 20:48:00,31.7,19.8,30.11,West,280,2.9,3.5,61,0.00,CLR,SCT,0.01,WeatherDisplay:10.37,2014-01-16 01:48:00,
2014-01-15 20:53:00,31.7,20.2,30.11,NW,308,3.8,5.8,62,0.00,CLR,SCT,0.01,WeatherDisplay:10.37,2014-01-16 01:53:00,
2014-01-15 20:58:00,31.6,19.3,30.11,NW,314,2.4,4.6,60,0.00,CLR,SCT,0.01,WeatherDisplay:10.37,2014-01-16 01:58:00,
2014-01-15 21:03:00,31.4,19.1,30.11,West,277,1.9,3.5,60,0.00,CLR,SCT,0.01,WeatherDisplay:10.37,2014-01-16 02:03:00,
2014-01-15 21:08:00,31.4,20.6,30.11,WNW,293,2.2,3.5,64,0.00,CLR,SCT,0.01,WeatherDisplay:10.37,2014-01-16 02:08:00,
2014-01-15 21:13:00,31.3,19.8,30.11,WNW,295,1.5,2.3,62,0.00,CLR,SCT,0.01,WeatherDisplay:10.37,2014-01-16 02:13:00,
2014-01-15 21:18:00,31.2,20.1,30.11,WNW,283,3.8,5.8,63,0.00,CLR,SCT,0.01,WeatherDisplay:10.37,2014-01-16 02:18:00,
2014-01-15 21:23:00,31.2,20.1,30.11,WNW,300,2.7,3.5,63,0.00,CLR,SCT,0.01,WeatherDisplay:10.37,2014-01-16 02:23:00,
2014-01-15 21:28:00,31.2,20.1,30.11,WNW,284,4.1,6.9,63,0.00,CLR,SCT,0.01,WeatherDisplay:10.37,2014-01-16 02:28:00,
2014-01-15 21:33:00,31.2,21.2,30.11,West,277,3.2,4.6,66,0.00,CLR,SCT,0.01,WeatherDisplay:10.37,2014-01-16 02:33:00,
2014-01-15 21:38:00,31.2,20.1,30.12,NW,312,2.9,4.6,63,0.00,CLR,SCT,0.01,WeatherDisplay:10.37,2014-01-16 02:38:00,
2014-01-15 21:43:00,31.1,21.1,30.11,West,275,2.6,3.5,66,0.00,CLR,SCT,0.01,WeatherDisplay:10.37,2014-01-16 02:43:00,
2014-01-15 21:48:00,31.0,20.6,30.11,WNW,289,0.9,3.5,65,0.00,CLR,SCT,0.01,WeatherDisplay:10.37,2014-01-16 02:48:00,
2014-01-15 21:53:00,31.0,20.2,30.11,West,268,1.0,3.5,64,0.00,CLR,SCT,0.01,WeatherDisplay:10.37,2014-01-16 02:53:00,
2014-01-15 21:58:00,30.8,20.0,30.11,West,274,0.6,3.5,64,0.00,CLR,SCT,0.01,WeatherDisplay:10.37,2014-01-16 02:58:00,
2014-01-15 22:03:00,30.7,20.0,30.11,West,277,0.3,2.3,64,0.00,CLR,SCT,0.01,WeatherDisplay:10.37,2014-01-16 03:03:00,
2014-01-15 22:08:00,30.5,20.1,30.11,WSW,258,1.8,3.5,65,0.00,CLR,SCT,0.01,WeatherDisplay:10.37,2014-01-16 03:08:00,
2014-01-15 22:13:00,30.4,19.7,30.11,WSW,258,0.0,0.0,64,0.00,CLR,SCT,0.01,WeatherDisplay:10.37,2014-01-16 03:13:00,
2014-01-15 22:18:00,30.3,19.6,30.11,WSW,258,0.0,0.0,64,0.00,CLR,SCT,0.01,WeatherDisplay:10.37,2014-01-16 03:18:00,
2014-01-15 22:23:00,30.1,19.7,30.11,WSW,258,0.1,0.0,65,0.00,CLR,SCT,0.01,WeatherDisplay:10.37,2014-01-16 03:23:00,
2014-01-15 22:28:00,29.9,19.9,30.11,WSW,257,0.0,0.0,66,0.00,CLR,SCT,0.01,WeatherDisplay:10.37,2014-01-16 03:28:00,
2014-01-15 22:33:00,29.8,19.5,30.11,NW,313,1.4,3.5,65,0.00,CLR,SCT,0.01,WeatherDisplay:10.37,2014-01-16 03:33:00,
2014-01-15 22:38:00,29.7,20.1,30.11,NW,314,0.6,1.2,67,0.00,CLR,SCT,0.01,WeatherDisplay:10.37,2014-01-16 03:38:00,
2014-01-15 22:43:00,29.6,19.6,30.11,NW,314,0.1,1.2,66,0.00,CLR,SCT,0.01,WeatherDisplay:10.37,2014-01-16 03:43:00,
2014-01-15 22:48:00,29.5,19.2,30.10,NW,314,0.0,1.2,65,0.00,CLR,SCT,0.01,WeatherDisplay:10.37,2014-01-16 03:48:00,
2014-01-15 22:53:00,29.4,19.8,30.11,NW,313,0.5,2.3,67,0.00,CLR,SCT,0.01,WeatherDisplay:10.37,2014-01-16 03:53:00,
2014-01-15 22:58:00,29.4,19.8,30.11,NW,313,0.0,0.0,67,0.00,CLR,SCT,0.01,WeatherDisplay:10.37,2014-01-16 03:58:00,
2014-01-15 23:03:00,29.3,19.3,30.11,NW,313,0.0,0.0,66,0.00,CLR,SCT,0.01,WeatherDisplay:10.37,2014-01-16 04:03:00,
2014-01-15 23:08:00,29.1,20.5,30.11,NW,313,1.4,2.3,70,0.00,CLR,SCT,0.01,WeatherDisplay:10.37,2014-01-16 04:08:00,
2014-01-15 23:13:00,29.0,20.1,30.11,WNW,291,0.0,1.2,69,0.00,CLR,SCT,0.01,WeatherDisplay:10.37,2014-01-16 04:13:00,
2014-01-15 23:18:00,28.9,19.7,30.11,WNW,291,0.1,1.2,68,0.00,CLR,SCT,0.01,WeatherDisplay:10.37,2014-01-16 04:18:00,
2014-01-15 23:23:00,28.8,20.6,30.11,WNW,291,0.2,1.2,71,0.00,CLR,SCT,0.01,WeatherDisplay:10.37,2014-01-16 04:23:00,
2014-01-15 23:28:00,28.7,20.1,30.11,WNW,291,0.0,0.0,70,0.00,CLR,SCT,0.01,WeatherDisplay:10.37,2014-01-16 04:28:00,
2014-01-15 23:33:00,28.5,20.3,30.11,WNW,291,0.0,1.2,71,0.00,CLR,SCT,0.01,WeatherDisplay:10.37,2014-01-16 04:33:00,
2014-01-15 23:38:00,28.4,20.2,30.11,WNW,291,0.0,0.0,71,0.00,CLR,SCT,0.01,WeatherDisplay:10.37,2014-01-16 04:38:00,
2014-01-15 23:43:00,28.3,20.1,30.10,WNW,291,0.0,0.0,71,0.00,CLR,SCT,0.01,WeatherDisplay:10.37,2014-01-16 04:43:00,
2014-01-15 23:48:00,28.3,19.8,30.10,WNW,291,0.0,0.0,70,0.00,CLR,SCT,0.01,WeatherDisplay:10.37,2014-01-16 04:48:00,
2014-01-15 23:53:00,28.3,19.4,30.10,WNW,291,0.4,1.2,69,0.00,CLR,SCT,0.01,WeatherDisplay:10.37,2014-01-16 04:53:00,
2014-01-15 23:58:00,28.3,19.4,30.10,WNW,282,1.9,3.5,69,0.00,CLR,SCT,0.01,WeatherDisplay:10.37,2014-01-16 04:58:00,